Station PORT2 - 8770475 - Port Arthur, TX Image indicating link to RSS feed of recent meteorological observations for station PORT2


Conditions at PORT2 as of
(3:18 pm CDT)
2018 GMT on 04/23/2024:
     

Click on the graph icon in the table below to see a time series plot of the last five days of that observation.

5-day plot - Wind Direction Wind Direction (WDIR):SSE ( 150 deg true )
5-day plot - Wind Speed Wind Speed (WSPD): 8.0 kts
5-day plot - Wind Gust Wind Gust (GST): 11.1 kts
5-day plot - Atmospheric Pressure Atmospheric Pressure (PRES):30.06 in
5-day plot - Air Temperature Air Temperature (ATMP): 72.0 °F
5-day plot - Water Temperature Water Temperature (WTMP): 73.8 °F
5-day plot - Wind Speed at 10 Meters Wind Speed at 10 meters (WSPD10M): 7.8 kts
5-day plot - Wind Speed at 20 Meters Wind Speed at 20 meters (WSPD20M): 9.7 kts
5-day plot -  Wind Speed, Wind Gust and Atmospheric Pressure Combined plot of Wind Speed, Gust, and Air Pressure
Previous observations
TIME
(CDT)
5-day plot - Wind Direction
WDIR
 
5-day plot - Wind Speed
WSPD
kts
5-day plot - Wind Gust
GST
kts
5-day plot - Wave Height
WVHT
ft
5-day plot - Dominant Wave Period
DPD
sec
5-day plot - Average Wave Period
APD
sec
5-day plot - Mean Wave Direction
MWD
 
5-day plot - Atmospheric Pressure
PRES
in
5-day plot - Pressure Tendency
PTDY
in
5-day plot - Air Temperature
ATMP
°F
5-day plot - Water Temperature
WTMP
°F
5-day plot - Dew Point
DEWP
°F
5-day plot - Salinity
SAL
psu
5-day plot - Visibility
VIS
nmi
5-day plot - Tide (above MLLW)
TIDE
ft
2024-04-23 03:12 pmSSE 6.0 13.0----30.06- 73.0 73.8----
2024-04-23 03:06 pmSSE 9.9 15.0----30.06- 72.0 73.6----
2024-04-23 03:00 pm S 7.0 12.0----30.06-0.05 73.4 73.6----
2024-04-23 02:54 pmSSE 8.0 12.0----30.06- 72.1 73.6----
2024-04-23 02:48 pmSSE 7.0 14.0----30.07- 72.1 73.6----
2024-04-23 02:42 pmSSE 7.0 12.0----30.07- 72.5 73.6----
2024-04-23 02:36 pmSSE 7.0 11.1----30.07- 72.1 73.4----
2024-04-23 02:30 pmSSE 8.0 13.0----30.07- 72.1 73.4----
2024-04-23 02:24 pmSSE 7.0 12.0----30.07- 71.8 73.4----
2024-04-23 02:18 pmSSE 7.0 12.0----30.08- 72.1 73.2----
2024-04-23 02:12 pmSSE 8.9 14.0----30.08- 72.5 73.4----
2024-04-23 02:06 pmSSE 6.0 12.0----30.08- 72.7 73.0----
2024-04-23 02:00 pmSSE 6.0 12.0----30.08-0.04 72.7 73.0----
2024-04-23 01:54 pm SE 8.0 13.0----30.08- 72.5 73.0----
2024-04-23 01:48 pmSSE 7.0 13.0----30.08- 72.3 72.9----
2024-04-23 01:42 pm SE 8.0 12.0----30.08- 72.9 72.9----
2024-04-23 01:36 pmSSE 6.0 11.1----30.08- 72.7 72.9----
2024-04-23 01:30 pm SE 6.0 9.9----30.09- 72.5 72.9----
2024-04-23 01:24 pmSSE 7.0 9.9----30.09- 72.3 72.9----
2024-04-23 01:18 pm SE 6.0 12.0----30.09- 72.1 72.9----
2024-04-23 01:12 pm SE 7.0 12.0----30.09- 72.1 72.9----
2024-04-23 01:06 pmSSE 8.0 11.1----30.09- 72.0 72.7----
2024-04-23 01:00 pm SE 8.0 12.0----30.09-0.01 71.8 72.7----
2024-04-23 12:54 pm SE 6.0 13.0----30.10- 72.3 72.7----
2024-04-23 12:48 pm SE 8.9 12.0----30.10- 71.6 72.7----
2024-04-23 12:42 pmSSE 7.0 12.0----30.10- 72.1 72.7----
2024-04-23 12:36 pmSSE 7.0 12.0----30.10- 71.8 72.7----
2024-04-23 12:30 pmSSE 7.0 12.0----30.11- 72.0 72.7----
2024-04-23 12:24 pmSSE 8.0 11.1----30.11- 71.8 72.7----
2024-04-23 12:18 pmSSE 8.0 12.0----30.11- 71.4 72.7----
2024-04-23 12:12 pmSSE 8.9 12.0----30.11- 71.2 72.7----
2024-04-23 12:06 pm SE 6.0 12.0----30.11- 71.8 72.7----
2024-04-23 12:00 pm SE 7.0 12.0----30.11+0.02 71.8 72.5----
2024-04-23 11:54 amSSE 8.0 12.0----30.11- 71.4 72.5----
2024-04-23 11:48 amSSE 7.0 11.1----30.11- 71.6 72.5----
2024-04-23 11:42 amSSE 7.0 12.0----30.11- 71.2 72.5----
2024-04-23 11:36 am S 8.0 13.0----30.11- 71.1 72.5----
2024-04-23 11:30 am SE 7.0 13.0----30.11- 71.4 72.5----
2024-04-23 11:24 am SE 8.9 11.1----30.11- 70.9 72.5----
2024-04-23 11:18 am S 7.0 9.9----30.11- 70.9 72.5----
2024-04-23 11:12 amSSE 6.0 12.0----30.11- 70.9 72.5----
2024-04-23 11:06 amSSE 8.0 12.0----30.11- 70.0 72.3----
2024-04-23 11:00 amSSE 7.0 12.0----30.11+0.03 70.2 72.3----
2024-04-23 10:54 am S 7.0 12.0----30.11- 70.0 72.3----
2024-04-23 10:48 amSSE 7.0 13.0----30.11- 70.5 72.3----
2024-04-23 10:42 amSSE 5.1 11.1----30.11- 70.2 72.3----
2024-04-23 10:36 am SE 8.0 11.1----30.11- 70.5 72.3----
2024-04-23 10:30 am S 8.9 12.0----30.11- 70.2 72.3----
2024-04-23 10:24 amSSE 7.0 12.0----30.11- 69.6 72.3----
2024-04-23 10:18 amSSE 6.0 12.0----30.11- 70.7 72.3----
2024-04-23 10:12 am S 8.0 12.0----30.11- 70.3 72.3----
2024-04-23 10:06 amSSE 6.0 11.1----30.11- 70.3 72.3----
2024-04-23 10:00 am S 5.1 8.9----30.11+0.03 70.5 72.3----
2024-04-23 09:54 amSSE 7.0 9.9----30.11- 70.0 72.3----
2024-04-23 09:48 am SE 6.0 9.9----30.10- 70.2 72.3----
2024-04-23 09:42 amSSE 7.0 8.9----30.10- 70.0 72.3----
2024-04-23 09:36 am SE 5.1 8.0----30.10- 70.2 72.1----
2024-04-23 09:30 am SE 5.1 8.9----30.10- 70.2 72.3----
2024-04-23 09:24 am SE 6.0 12.0----30.10- 69.4 72.1----
2024-04-23 09:18 amSSE 6.0 9.9----30.10- 69.3 72.1----
2024-04-23 09:12 am SE 8.0 8.9----30.09- 69.3 72.1----
2024-04-23 09:06 am SE 6.0 8.0----30.09- 69.3 72.1----
2024-04-23 09:00 amSSE 6.0 9.9----30.09+0.03 68.9 72.1----
2024-04-23 08:54 am SE 6.0 8.9----30.09- 68.9 72.1----
2024-04-23 08:48 amSSE 6.0 8.0----30.09- 68.7 72.1----
2024-04-23 08:42 amSSE 5.1 7.0----30.09- 68.7 72.1----
2024-04-23 08:36 am SE 6.0 8.9----30.09- 68.4 72.1----
2024-04-23 08:30 am SE 5.1 9.9----30.09- 68.2 72.1----
2024-04-23 08:24 am SE 7.0 8.0----30.08- 67.8 72.1----
2024-04-23 08:18 am SE 6.0 8.9----30.08- 67.8 72.1----
2024-04-23 08:12 am SE 6.0 8.9----30.08- 67.3 72.1----
2024-04-23 08:06 am SE 5.1 8.0----30.08- 67.1 72.1----
2024-04-23 08:00 am SE 5.1 7.0----30.08+0.03 66.9 72.1----
2024-04-23 07:54 am SE 4.1 8.9----30.08- 66.7 72.1----
2024-04-23 07:48 am SE 4.1 7.0----30.08- 66.4 72.1----
2024-04-23 07:42 amSSE 2.9 4.1----30.08- 65.8 72.1----
2024-04-23 07:36 amSSE 2.9 5.1----30.08- 65.5 72.1----
2024-04-23 07:30 amSSE 2.9 5.1----30.08- 65.1 72.1----
2024-04-23 07:24 amSSE 2.9 4.1----30.08- 64.8 72.1----
2024-04-23 07:18 am S 2.9 4.1----30.08- 64.0 72.1----
2024-04-23 07:12 amSSE 1.9 5.1----30.08- 63.9 72.1----
2024-04-23 07:06 amSSE 2.9 5.1----30.08- 63.5 72.1----
2024-04-23 07:00 amSSE 2.9 5.1----30.08+0.02 63.9 72.1----
2024-04-23 06:54 amSSE 2.9 4.1----30.07- 63.7 72.1----
2024-04-23 06:48 amSSE 2.9 5.1----30.07- 63.5 72.1----
2024-04-23 06:42 amSSE 4.1 5.1----30.07- 63.1 72.1----
2024-04-23 06:36 amSSE 4.1 5.1----30.07- 62.6 72.1----
2024-04-23 06:30 amSSE 1.9 2.9----30.07- 62.2 72.1----
2024-04-23 06:24 amSSE 1.9 4.1----30.06- 62.2 72.1----
2024-04-23 06:18 amSSE 2.9 5.1----30.06- 62.1 72.1----
2024-04-23 06:12 am S 2.9 4.1----30.06- 61.7 72.1----
2024-04-23 06:06 amSSE 2.9 4.1----30.06- 61.7 72.1----
2024-04-23 06:00 amSSE 1.9 2.9----30.06+0.00 61.9 72.1----
2024-04-23 05:54 amSSE 2.9 5.1----30.06- 62.1 72.1----
2024-04-23 05:48 amSSE 1.9 2.9----30.06- 61.3 72.1----
2024-04-23 05:42 amSSE 1.9 4.1----30.06- 61.3 72.1----
2024-04-23 05:36 amSSE 2.9 4.1----30.06- 61.5 72.1----
2024-04-23 05:30 am S 1.9 2.9----30.06- 61.3 72.1----
2024-04-23 05:24 amSSE 2.9 5.1----30.05- 62.1 72.1----
2024-04-23 05:18 amSSE 4.1 6.0----30.05- 61.7 72.1----
2024-04-23 05:12 amSSE 2.9 4.1----30.05- 61.3 72.3----
2024-04-23 05:06 am S 2.9 5.1----30.05- 61.3 72.3----
2024-04-23 05:00 amSSE 2.9 5.1----30.05-0.03 60.8 72.3----
2024-04-23 04:54 am S 1.9 5.1----30.05- 61.0 72.3----
2024-04-23 04:48 am S 4.1 5.1----30.06- 61.7 72.3----
2024-04-23 04:42 am S 2.9 5.1----30.06- 61.7 72.3----
2024-04-23 04:36 am S 4.1 5.1----30.06- 62.1 72.3----
2024-04-23 04:30 amSSE 2.9 5.1----30.06- 62.2 72.3----
2024-04-23 04:24 am S 4.1 4.1----30.06- 62.8 72.3----
2024-04-23 04:18 am S 4.1 6.0----30.06- 63.5 72.5----
2024-04-23 04:12 amSSE 2.9 5.1----30.06- 63.5 72.5----
2024-04-23 04:06 amSSE 2.9 6.0----30.06- 64.0 72.5----
2024-04-23 04:00 amSSE 4.1 7.0----30.06-0.04 64.2 72.5----
2024-04-23 03:54 amSSE 5.1 7.0----30.06- 64.8 72.5----
2024-04-23 03:48 amSSE 4.1 7.0----30.06- 64.8 72.5----
2024-04-23 03:42 am SE 5.1 7.0----30.05- 64.9 72.5----
2024-04-23 03:36 am SE 4.1 7.0----30.06- 64.9 72.5----
2024-04-23 03:30 am SE 5.1 8.0----30.06- 64.8 72.7----
2024-04-23 03:24 am SE 5.1 8.0----30.06- 65.1 72.7----
2024-04-23 03:18 am SE 4.1 5.1----30.06- 64.6 72.7----
2024-04-23 03:12 am SE 4.1 7.0----30.06- 64.8 72.7----
2024-04-23 03:06 amSSE 2.9 5.1----30.06- 64.4 72.7----
2024-04-23 03:00 amSSE 4.1 6.0----30.07-0.04 64.4 72.7----
2024-04-23 02:54 am SE 4.1 6.0----30.07- 64.6 72.7----
2024-04-23 02:48 am SE 2.9 5.1----30.07- 64.2 72.7----
2024-04-23 02:42 amSSE 2.9 6.0----30.07- 64.4 72.7----
2024-04-23 02:36 amSSE 2.9 5.1----30.07- 64.2 72.7----
2024-04-23 02:30 am SE 4.1 6.0----30.08- 64.0 72.9----
2024-04-23 02:24 am SE 4.1 6.0----30.08- 64.4 72.9----
2024-04-23 02:18 amSSE 5.1 8.0----30.08- 64.8 72.9----
2024-04-23 02:12 amSSE 4.1 6.0----30.08- 64.4 72.9----
2024-04-23 02:06 am SE 4.1 7.0----30.08- 64.2 72.9----
2024-04-23 02:00 am SE 5.1 7.0----30.09-0.04 64.4 72.9----
2024-04-23 01:54 am SE 5.1 7.0----30.09- 64.4 72.9----
2024-04-23 01:48 amSSE 4.1 5.1----30.09- 64.0 72.9----
2024-04-23 01:42 am SE 4.1 6.0----30.09- 64.2 72.9----
2024-04-23 01:36 am SE 5.1 7.0----30.09- 64.4 72.9----
2024-04-23 01:30 amSSE 4.1 7.0----30.09- 64.0 72.9----
2024-04-23 01:24 am SE 4.1 6.0----30.09- 64.0 72.9----
2024-04-23 01:18 am SE 5.1 5.1----30.09- 64.2 72.9----
2024-04-23 01:12 amSSE 2.9 6.0----30.10- 64.0 72.9----
2024-04-23 01:06 am SE 4.1 6.0----30.10- 64.2 72.9----
2024-04-23 01:00 am SE 5.1 7.0----30.10-0.02 64.4 72.9----
2024-04-23 12:54 am SE 5.1 7.0----30.10- 64.2 72.9----
2024-04-23 12:48 am SE 4.1 6.0----30.11- 64.2 72.9----
2024-04-23 12:42 amSSE 2.9 6.0----30.11- 64.0 72.9----
2024-04-23 12:36 amSSE 2.9 6.0----30.11- 63.9 72.9----
2024-04-23 12:30 amSSE 5.1 7.0----30.11- 64.0 72.9----
2024-04-23 12:24 amSSE 4.1 6.0----30.11- 64.0 72.9----
2024-04-23 12:18 am SE 4.1 6.0----30.11- 63.7 72.9----
2024-04-23 12:12 am SE 4.1 7.0----30.11- 64.0 72.9----
2024-04-23 12:06 am SE 5.1 7.0----30.11- 64.2 73.0----
2024-04-23 12:00 am SE 5.1 6.0----30.11+0.00 64.0 73.0----
2024-04-22 11:54 pm SE 2.9 5.1----30.11- 63.9 73.0----
2024-04-22 11:48 pm S 2.9 5.1----30.11- 63.3 73.0----
2024-04-22 11:42 pm SE 4.1 6.0----30.11- 63.9 73.0----
2024-04-22 11:36 pm SE 4.1 5.1----30.11- 63.3 73.0----
2024-04-22 11:30 pmSSE 2.9 4.1----30.11- 63.3 73.0----
2024-04-22 11:24 pmSSE 1.9 2.9----30.12- 63.1 73.0----
2024-04-22 11:18 pmSSE 1.9 4.1----30.12- 63.0 73.2----
2024-04-22 11:12 pmSSE 1.9 4.1----30.12- 62.6 73.2----
2024-04-22 11:06 pmSSE 2.9 4.1----30.12- 63.0 73.2----
2024-04-22 11:00 pm S 2.9 4.1----30.12+0.02 62.6 73.2----
2024-04-22 10:54 pmSSE 2.9 4.1----30.12- 63.0 73.2----
2024-04-22 10:48 pm S 2.9 2.9----30.12- 62.2 73.2----
2024-04-22 10:42 pmSSE 1.9 2.9----30.12- 61.9 73.2----
2024-04-22 10:36 pm S 2.9 2.9----30.12- 61.9 73.2----
2024-04-22 10:30 pm S 1.9 2.9----30.12- 61.5 73.2----
2024-04-22 10:24 pm S 2.9 2.9----30.12- 61.9 73.2----
2024-04-22 10:18 pm S 2.9 4.1----30.12- 61.7 73.2----
2024-04-22 10:12 pm S 2.9 4.1----30.12- 61.7 73.2----
2024-04-22 10:06 pm S 2.9 5.1----30.12- 61.9 73.2----
2024-04-22 10:00 pm S 2.9 4.1----30.12+0.02 61.9 73.2----
2024-04-22 09:54 pm S 2.9 5.1----30.12- 61.7 73.2----
2024-04-22 09:48 pm S 2.9 4.1----30.12- 61.9 73.2----
2024-04-22 09:42 pm S 2.9 4.1----30.11- 61.5 73.4----
2024-04-22 09:36 pm S 4.1 5.1----30.11- 61.7 73.4----
2024-04-22 09:30 pm S 4.1 6.0----30.11- 62.1 73.4----
2024-04-22 09:24 pm S 5.1 7.0----30.11- 62.6 73.4----
2024-04-22 09:18 pm S 4.1 5.1----30.11- 61.9 73.4----
2024-04-22 09:12 pm S 4.1 5.1----30.11- 62.8 73.4----
2024-04-22 09:06 pm S 2.9 5.1----30.11- 63.1 73.4----
2024-04-22 09:00 pmSSE 4.1 6.0----30.11+0.00 63.7 73.4----
2024-04-22 08:54 pmSSE 2.9 5.1----30.11- 63.7 73.4----
2024-04-22 08:48 pmSSE 2.9 5.1----30.11- 64.2 73.4----
2024-04-22 08:42 pm SE 4.1 6.0----30.10- 64.6 73.4----
2024-04-22 08:36 pm SE 2.9 5.1----30.10- 64.6 73.4----
2024-04-22 08:30 pmSSE 5.1 6.0----30.10- 64.6 73.4----
2024-04-22 08:24 pm SE 4.1 5.1----30.10- 64.6 73.6----
2024-04-22 08:18 pmESE 4.1 6.0----30.09-- 73.6----
2024-04-22 08:12 pmESE 4.1 5.1----30.10-- 73.6----
2024-04-22 08:06 pmESE 2.9 5.1----30.10-- 73.6----
2024-04-22 08:00 pm SE 4.1 7.0----30.10-0.02 65.1 73.6----
2024-04-22 07:54 pm SE 4.1 7.0----30.10- 65.1 73.6----
2024-04-22 07:48 pm SE 6.0 8.0----30.11-- 73.6----
2024-04-22 07:42 pm SE 4.1 7.0----30.11-- 73.6----
2024-04-22 07:36 pmESE 2.9 6.0----30.11-- 73.6----
2024-04-22 07:30 pm SE 5.1 7.0----30.11- 65.7 73.6----
2024-04-22 07:24 pmSSE 4.1 6.0----30.10- 66.2 73.6----
2024-04-22 07:18 pm--------- 66.6 73.6----
2024-04-22 07:12 pm--------- 66.7 73.6----
2024-04-22 07:06 pm--------- 67.1 73.6----
2024-04-22 07:00 pm SE 5.1 6.0----30.10-0.04 66.9 73.6----
2024-04-22 06:54 pm SE 4.1 6.0----30.11- 67.6 73.6----
2024-04-22 06:48 pm SE 4.1 7.0----30.11- 67.6 73.6----
2024-04-22 06:42 pm SE 2.9 6.0----30.11- 67.8 73.6----
2024-04-22 06:36 pmESE 2.9 6.0----30.11- 68.0 73.6----
2024-04-22 06:30 pm SE 4.1 6.0----30.11- 68.0 73.6----
2024-04-22 06:24 pm E 2.9 6.0----30.11- 68.2 73.6----
2024-04-22 06:18 pm E 4.1 7.0----30.11- 67.8 73.6----
2024-04-22 06:12 pm E 2.9 5.1----30.11- 68.0 73.6----
2024-04-22 06:06 pmESE 2.9 8.0----30.11- 68.0 73.6----
2024-04-22 06:00 pmESE 4.1 8.0----30.11-0.05 68.0 73.6----
2024-04-22 05:54 pm E 6.0 8.0----30.11- 67.5 73.6----
2024-04-22 05:48 pm E 5.1 8.0----30.11- 67.8 73.6----
2024-04-22 05:42 pm E 4.1 6.0----30.11- 67.8 73.4----
2024-04-22 05:36 pm E 5.1 7.0----30.11- 67.8 73.4----
2024-04-22 05:30 pm E 2.9 6.0----30.12- 67.8 73.4----
2024-04-22 05:24 pm E 5.1 8.0----30.12- 67.3 73.4----
2024-04-22 05:18 pm E 5.1 7.0----30.12- 67.3 73.4----
2024-04-22 05:12 pm E 6.0 8.0----30.12- 67.1 73.4----
2024-04-22 05:06 pmESE 5.1 6.0----30.12- 67.6 73.4----
2024-04-22 05:00 pm E 5.1 8.0----30.12-0.07 67.5 73.4----
2024-04-22 04:54 pm E 5.1 7.0----30.12- 67.1 73.2----
2024-04-22 04:48 pm E 5.1 8.0----30.12- 67.5 73.2----
2024-04-22 04:42 pm E 6.0 7.0----30.13- 67.3 73.2----
2024-04-22 04:36 pm E 5.1 7.0----30.14- 66.7 73.2----
2024-04-22 04:30 pm E 4.1 8.0----30.14- 67.5 73.0----
2024-04-22 04:24 pm E 6.0 7.0----30.14- 66.2 73.0----
2024-04-22 04:18 pm E 5.1 7.0----30.14- 66.9 73.0----
2024-04-22 04:12 pm E 5.1 8.0----30.14- 66.2 73.0----
2024-04-22 04:06 pm SE 5.1 7.0----30.14- 66.0 73.0----
2024-04-22 04:00 pm SE 5.1 8.9----30.14-0.07 66.6 73.0----
2024-04-22 03:54 pm SE 5.1 8.0----30.14- 66.2 72.9----
2024-04-22 03:48 pm SE 5.1 8.9----30.15- 66.4 72.9----
2024-04-22 03:42 pm E 4.1 8.0----30.16- 66.0 72.9----
2024-04-22 03:36 pm E 5.1 8.9----30.16- 66.0 72.9----
2024-04-22 03:30 pm E 5.1 7.0----30.16- 65.8 72.9----
2024-04-22 03:24 pm E 5.1 8.0----30.16- 66.2 72.9----
2024-04-22 03:18 pmESE 5.1 8.0----30.16- 66.0 72.9----
2024-04-22 03:12 pmENE 5.1 8.0----30.16- 65.8 72.7----
2024-04-22 03:06 pm SE 5.1 8.0----30.16- 65.7 72.7----
2024-04-22 03:00 pmESE 5.1 7.0----30.16-0.09 65.8 72.7----
2024-04-22 02:54 pm SE 5.1 7.0----30.17- 65.7 72.7----